TimeMST,TemperatureF,Dew PointF,Humidity,Sea Level PressureIn,VisibilityMPH,Wind Direction,Wind SpeedMPH,Gust SpeedMPH,PrecipitationIn,Events,Conditions,WindDirDegrees,DateUTC
12:57 AM,28.9,15.1,56,30.03,10.0,Calm,Calm,-,N/A,,Clear,0,2012-03-16 07:57:00
1:57 AM,30.9,15.1,52,30.00,10.0,Calm,Calm,-,N/A,,Clear,0,2012-03-16 08:57:00
2:57 AM,28.9,15.1,56,29.98,10.0,SSW,3.5,-,N/A,,Clear,200,2012-03-16 09:57:00
3:57 AM,30.0,16.0,56,29.96,10.0,Calm,Calm,-,N/A,,Clear,0,2012-03-16 10:57:00
4:57 AM,28.9,16.0,58,29.98,10.0,Calm,Calm,-,N/A,,Clear,0,2012-03-16 11:57:00
6:57 AM,26.1,16.0,66,30.03,10.0,Calm,Calm,-,N/A,,Clear,0,2012-03-16 13:57:00
7:57 AM,39.0,21.9,50,29.99,10.0,Calm,Calm,-,N/A,,Clear,0,2012-03-16 14:57:00
8:57 AM,48.9,14.0,25,29.98,10.0,SW,10.4,-,N/A,,Clear,230,2012-03-16 15:57:00
9:57 AM,53.1,12.9,20,29.99,10.0,SSW,15.0,-,N/A,,Clear,210,2012-03-16 16:57:00
11:57 AM,57.0,12.0,17,29.96,10.0,SW,17.3,23.0,N/A,,Clear,220,2012-03-16 18:57:00
12:57 PM,57.9,12.9,17,29.94,10.0,SW,16.1,25.3,N/A,,Clear,220,2012-03-16 19:57:00
1:57 PM,60.1,12.0,15,29.90,10.0,SSW,19.6,27.6,N/A,,Clear,210,2012-03-16 20:57:00
2:57 PM,61.0,12.0,15,29.89,10.0,SW,21.9,28.8,N/A,,Clear,220,2012-03-16 21:57:00
3:57 PM,60.1,12.0,15,29.88,10.0,SSW,19.6,25.3,N/A,,Clear,210,2012-03-16 22:57:00
4:57 PM,57.9,14.0,18,29.88,10.0,SSW,15.0,23.0,N/A,,Clear,200,2012-03-16 23:57:00
5:57 PM,55.0,15.1,21,29.91,10.0,SSW,18.4,23.0,N/A,,Clear,210,2012-03-17 00:57:00
6:57 PM,50.0,15.1,25,29.94,10.0,SW,9.2,-,N/A,,Clear,230,2012-03-17 01:57:00
7:57 PM,48.9,16.0,27,29.89,10.0,SW,11.5,-,N/A,,Clear,230,2012-03-17 02:57:00
8:57 PM,46.9,16.0,29,29.86,10.0,WSW,5.8,-,N/A,,Clear,250,2012-03-17 03:57:00
9:57 PM,41.0,16.0,36,29.86,10.0,Calm,Calm,-,N/A,,Clear,0,2012-03-17 04:57:00
10:57 PM,34.0,17.1,50,29.87,10.0,Calm,Calm,-,N/A,,Clear,0,2012-03-17 05:57:00
11:57 PM,30.9,16.0,54,29.85,10.0,Calm,Calm,-,N/A,,Clear,0,2012-03-17 06:57:00